This demonstration page uses our WeatherBlox Daily Observations layout. Learn more.

Left ArrowRight Arrow

Hourly Observations for May 19, 2017

Temp ( °F °C ) Dew Point ( °F °C ) Humidity (%) Winds ( mph kmh ) Pressure ( in mb ) Visibility ( mi km ) Precip ( " mm )
12:53 am 00:53 Clear 67 19.4 25 -3.9 20 20 ESE 6 9 29.61 1003 10 16 0.00 0.00
1:53 am 01:53 Clear 63 17.2 26 -3.3 25 25 NE 5 7 29.60 1003 10 16 0.00 0.00
2:53 am 02:53 Mostly Clear 62 16.7 27 -2.8 26 26 NNE 6 9 29.60 1002 10 16 0.00 0.00
3:53 am 03:53 Mostly Clear 60 15.6 26 -3.3 27 27 NNW 10 17 29.58 1002 10 16 0.00 0.00
4:53 am 04:53 Mostly Clear 59 15 27 -2.8 29 29 N 10 17 29.58 1002 10 16 0.00 0.00
5:53 am 05:53 Clear 55 12.8 28 -2.2 35 35 NNW 10 17 29.60 1002 10 16 0.00 0.00
6:53 am 06:53 Clear 55 12.8 28 -2.2 35 35 NNW 8 13 29.63 1003 10 16 0.00 0.00
7:53 am 07:53 Sunny 63 17.2 29 -1.7 28 28 NNW 9 15 29.65 1004 10 16 0.00 0.00
8:53 am 08:53 Sunny 69 20.6 29 -1.7 22 22 N 10 17 29.66 1004 10 16 0.00 0.00
9:53 am 09:53 Sunny 74 23.3 29 -1.7 19 19 NNW 8 13 29.67 1005 10 16 0.00 0.00
10:53 am 10:53 Sunny 79 26.1 30 -1.1 17 17 VRB 6 9 29.66 1004 10 16 0.00 0.00
11:53 am 11:53 Sunny 84 28.9 31 -0.6 15 15 W 17 28 29.67 1005 10 16 0.00 0.00
12:53 pm 12:53 Sunny 86 30 31 -0.6 14 14 WNW 21 33 29.65 1004 10 16 0.00 0.00
1:53 pm 13:53 Sunny 87 30.6 30 -1.1 13 13 NW 15 24 29.65 1004 10 16 0.00 0.00
2:53 pm 14:53 Sunny 88 31.1 29 -1.7 12 12 NNW 13 20 29.64 1004 10 16 0.00 0.00
3:53 pm 15:53 Sunny 88 31.1 27 -2.8 11 11 W 12 19 29.62 1003 10 16 0.00 0.00
4:53 pm 16:53 Sunny 91 32.8 25 -3.9 9 9 W 20 31 29.61 1003 10 16 0.00 0.00
5:53 pm 17:53 Sunny 90 32.2 25 -3.9 9 9 WSW 17 28 29.60 1003 10 16 0.00 0.00
6:53 pm 18:53 Sunny 89 31.7 22 -5.6 8 8 W 13 20 29.61 1003 10 16 0.00 0.00
7:53 pm 19:53 Sunny 86 30 14 -10 7 7 W 17 28 29.62 1003 10 16 0.00 0.00
8:53 pm 20:53 Clear 82 27.8 12 -11.1 7 7 WNW 15 24 29.64 1004 10 16 0.00 0.00
9:53 pm 21:53 Clear 75 23.9 14 -10 10 10 WNW 8 13 29.69 1005 10 16 0.00 0.00
10:53 pm 22:53 Clear 72 22.2 13 -10.6 10 10 WNW 8 13 29.72 1006 10 16 0.00 0.00
11:53 pm 23:53 Clear 71 21.7 15 -9.4 12 12 N 16 26 29.72 1007 10 16 0.00 0.00

Powered by AerisWeather